FW4559 Weather Reports


Display with metric or nautical units.
time (UTC)temp
F
wind
direction
speed
MPH
gust
MPH
rain 1hr
in
rain 24hr
in
rain mn
in
humidity
%
barometer
mb
20210804004520 63 110 0.0 2.0 0.00 0.00 0.00 85 1016.3
20210804004039 63 84 0.0 1.0 0.00 0.00 0.00 85 1016.3
20210804003031 64 102 0.0 1.0 0.00 0.00 0.00 84 1016.1
20210804002523 64 102 0.0 2.0 0.00 0.00 0.00 84 1016.1
20210804002021 64 102 0.0 5.0 0.00 0.00 0.00 83 1016.0
20210804001526 64 127 1.0 5.0 0.00 0.00 0.00 83 1016.0
20210804001017 64 129 1.0 4.0 0.00 0.00 0.00 83 1015.9
20210804000519 64 96 1.0 4.0 0.00 0.00 0.00 83 1015.9
20210804000104 64 140 0.0 6.0 0.00 0.00 0.00 83 1015.7
20210803235516 64 103 2.0 6.0 0.00 0.00 0.00 82 1015.5
20210803235017 64 139 2.0 6.0 0.00 0.00 0.00 83 1015.6
20210803234555 64 117 1.0 5.0 0.00 0.00 0.00 84 1015.6
20210803234031 64 126 0.0 2.0 0.00 0.00 0.00 84 1015.6
20210803233533 64 113 0.0 3.0 0.00 0.00 0.00 83 1015.6
20210803233049 65 116 0.0 3.0 0.00 0.00 0.00 83 1015.6
20210803232515 65 105 0.0 2.0 0.00 0.00 0.00 83 1015.5
20210803232015 65 118 0.0 3.0 0.00 0.00 0.00 82 1015.7
20210803231555 65 85 0.0 3.0 0.00 0.00 0.00 82 1015.7
20210803231014 65 109 0.0 2.0 0.00 0.00 0.00 82 1015.7
20210803230525 66 87 0.0 6.0 0.00 0.00 0.00 81 1015.6
20210803230037 66 115 0.0 5.0 0.00 0.00 0.00 81 1015.6
20210803225515 66 132 0.0 1.0 0.00 0.00 0.00 81 1015.6
20210803225014 66 115 0.0 4.0 0.00 0.00 0.00 81 1015.5
20210803224526 66 115 1.0 5.0 0.00 0.00 0.00 81 1015.6
20210803224043 66 129 2.0 5.0 0.00 0.00 0.00 80 1015.6
20210803223514 66 111 0.0 5.0 0.00 0.00 0.00 81 1015.7
20210803223023 66 134 0.0 3.0 0.00 0.00 0.00 80 1015.7
20210803222513 66 130 0.0 5.0 0.00 0.00 0.00 80 1015.6
20210803222017 66 107 1.0 5.0 0.00 0.00 0.00 80 1015.7
20210803221544 67 127 0.0 3.0 0.00 0.00 0.00 78 1015.7
20210803221012 68 133 0.0 3.0 0.00 0.00 0.00 78 1015.8
20210803220516 68 127 0.0 3.0 0.00 0.00 0.00 77 1015.8
20210803220052 68 82 0.0 3.0 0.00 0.00 0.00 76 1015.8
20210803215512 68 169 0.0 4.0 0.00 0.00 0.00 75 1015.8
20210803215014 69 176 0.0 4.0 0.00 0.00 0.00 75 1015.8
20210803214521 69 166 0.0 2.0 0.00 0.00 0.00 77 1015.8
20210803214011 68 162 0.0 4.0 0.00 0.00 0.00 79 1015.8
20210803213510 67 122 2.0 4.0 0.00 0.00 0.00 78 1016.0
20210803213010 67 155 0.0 4.0 0.00 0.00 0.00 79 1015.9
20210803212509 67 127 0.0 4.0 0.00 0.00 0.00 80 1016.0
20210803212010 67 156 0.0 4.0 0.00 0.00 0.00 80 1015.8
20210803211559 68 134 0.0 4.0 0.00 0.00 0.00 79 1015.8
20210803211007 67 158 0.0 4.0 0.00 0.00 0.00 82 1015.8
20210803210507 66 168 0.0 5.0 0.00 0.00 0.00 82 1015.8
20210803210015 66 162 1.0 7.0 0.00 0.00 0.00 82 1015.9
20210803205506 66 141 0.0 8.0 0.00 0.00 0.00 82 1015.9
20210803205009 67 131 1.0 4.0 0.00 0.00 0.00 80 1016.0
20210803204507 67 141 0.0 4.0 0.00 0.00 0.00 78 1015.9
20210803204005 68 175 0.0 3.0 0.00 0.00 0.00 78 1016.0
20210803203508 67 137 0.0 4.0 0.00 0.00 0.00 80 1016.0
20210803203008 67 203 1.0 4.0 0.00 0.00 0.00 80 1016.0
20210803202507 66 90 0.0 7.0 0.00 0.00 0.00 80 1016.0
20210803202002 67 104 3.0 7.0 0.00 0.00 0.00 80 1016.1
20210803201508 67 125 0.0 4.0 0.00 0.00 0.00 80 1016.0
20210803201003 66 187 1.0 8.0 0.00 0.00 0.00 82 1016.0
20210803200501 65 146 1.0 9.0 0.00 0.00 0.00 83 1015.9
20210803200001 65 135 4.0 9.0 0.00 0.00 0.00 83 1015.8
20210803195601 65 186 3.0 9.0 0.00 0.00 0.00 83 1015.7
20210803195100 65 188 4.0 7.0 0.00 0.00 0.00 83 1015.8
20210803194713 66 136 2.0 7.0 0.00 0.00 0.00 82 1015.7
20210803194105 66 149 1.0 7.0 0.00 0.00 0.00 82 1015.8
20210803193601 66 160 0.0 8.0 0.00 0.00 0.00 83 1015.8
20210803193233 66 109 3.0 8.0 0.00 0.00 0.00 81 1015.8
20210803192617 66 224 0.0 7.0 0.00 0.00 0.00 82 1015.8
20210803192104 66 118 1.0 7.0 0.00 0.00 0.00 82 1015.8
20210803191638 66 103 2.0 5.0 0.00 0.00 0.00 81 1015.9
20210803191057 66 109 0.0 4.0 0.00 0.00 0.00 82 1015.9
20210803190610 66 134 0.0 5.0 0.00 0.00 0.00 84 1016.0
20210803190245 65 28 1.0 6.0 0.00 0.00 0.00 83 1016.0
20210803185600 65 80 1.0 6.0 0.00 0.00 0.00 83 1016.0
20210803185055 66 101 0.0 4.0 0.00 0.00 0.00 83 1016.1
20210803184843 65 130 0.0 3.0 0.00 0.00 0.00 84 1016.3
20210803184053 65 124 0.0 4.0 0.00 0.00 0.00 84 1016.3
20210803183609 65 127 1.0 7.0 0.00 0.00 0.00 84 1016.4
20210803183214 64 89 2.0 7.0 0.00 0.00 0.00 84 1016.4
20210803182552 65 120 2.0 5.0 0.00 0.00 0.00 84 1016.4
20210803182106 64 111 1.0 6.0 0.00 0.00 0.00 85 1016.5
20210803181658 64 118 1.0 5.0 0.00 0.00 0.00 84 1016.6
20210803181106 65 108 0.0 2.0 0.00 0.00 0.00 84 1016.6
20210803180605 64 246 0.0 2.0 0.00 0.00 0.00 86 1016.8
20210803180225 64 129 0.0 3.0 0.00 0.00 0.00 87 1016.8
20210803175548 63 156 1.0 4.0 0.00 0.00 0.00 87 1016.8
20210803175047 63 133 1.0 5.0 0.00 0.00 0.00 88 1016.9
20210803174702 63 125 1.0 4.0 0.00 0.00 0.00 88 1017.0
20210803174125 63 116 1.0 4.0 0.00 0.00 0.00 87 1017.0
20210803173549 63 89 1.0 4.0 0.00 0.00 0.00 88 1017.1
20210803173237 63 2 0.0 4.0 0.00 0.00 0.00 88 1017.0
20210803172547 63 126 0.0 4.0 0.00 0.00 0.00 88 1017.0
20210803172047 63 199 1.0 4.0 0.00 0.00 0.00 88 1017.1
20210803171626 63 138 0.0 3.0 0.00 0.00 0.00 88 1017.2
20210803171045 63 143 0.0 4.0 0.00 0.00 0.00 88 1017.2
20210803170549 63 198 2.0 4.0 0.00 0.00 0.00 88 1017.1
20210803170151 63 215 0.0 0.0 0.00 0.00 0.00 89 1017.2
20210803165545 62 143 0.0 0.0 0.00 0.00 0.00 89 1017.2
20210803165044 62 157 0.0 0.0 0.00 0.00 0.00 91 1017.2
20210803164645 62 110 0.0 5.0 0.00 0.00 0.00 92 1017.2
20210803164110 61 161 1.0 5.0 0.00 0.00 0.00 90 1017.3
20210803163554 61 136 0.0 3.0 0.00 0.00 0.00 90 1017.2
20210803162543 62 143 0.0 10.0 0.00 0.00 0.00 90 1017.3
20210803162050 62 219 2.0 10.0 0.00 0.00 0.00 90 1017.3
20210803161628 61 169 0.0 7.0 0.00 0.00 0.00 91 1017.2
20210803161059 61 135 1.0 9.0 0.00 0.00 0.00 90 1017.3
20210803160542 62 97 2.0 6.0 0.00 0.00 0.00 90 1017.3
20210803160237 62 98 0.0 3.0 0.00 0.00 0.00 90 1017.3
20210803155543 62 67 0.0 9.0 0.00 0.00 0.00 90 1017.3
20210803155042 61 202 4.0 13.0 0.00 0.00 0.00 89 1017.2
20210803154608 62 101 6.0 13.0 0.00 0.00 0.00 88 1017.3
20210803154041 63 107 4.0 11.0 0.00 0.00 0.00 87 1017.3
20210803153549 63 152 2.0 12.0 0.00 0.00 0.00 87 1017.1
20210803153249 63 108 6.0 11.0 0.00 0.00 0.00 86 1017.1
20210803152549 63 107 1.0 10.0 0.00 0.00 0.00 87 1017.1
20210803152055 63 83 2.0 9.0 0.00 0.00 0.00 86 1017.2
20210803151617 63 309 3.0 9.0 0.00 0.00 0.00 86 1017.3
20210803150553 63 125 1.0 9.0 0.00 0.00 0.00 85 1017.1
20210803150045 63 117 2.0 8.0 0.00 0.00 0.00 84 1017.2
20210803145547 63 166 2.0 7.0 0.00 0.00 0.00 84 1017.2
20210803145044 63 131 1.0 11.0 0.00 0.00 0.00 85 1017.2
20210803144620 63 93 4.0 11.0 0.00 0.00 0.00 84 1017.1
20210803144045 63 103 0.0 8.0 0.00 0.00 0.00 87 1017.1
20210803143537 63 56 2.0 6.0 0.00 0.00 0.00 87 1017.1
20210803143053 63 151 0.0 0.0 0.00 0.00 0.00 88 1017.0
20210803142538 63 127 0.0 5.0 0.00 0.00 0.00 88 1017.0
20210803142041 63 107 0.0 9.0 0.00 0.00 0.00 89 1016.9
20210803141557 63 134 1.0 9.0 0.00 0.00 0.00 88 1016.8
20210803141036 63 147 2.0 10.0 0.00 0.00 0.00 89 1016.8
20210803140535 63 114 0.0 10.0 0.00 0.00 0.00 89 1016.8
20210803140252 63 161 1.0 9.0 0.00 0.00 0.00 90 1016.8
20210803135538 63 120 4.0 11.0 0.00 0.00 0.00 90 1016.9
20210803135034 63 125 5.0 11.0 0.00 0.00 0.00 90 1016.8
20210803134547 63 155 0.0 6.0 0.00 0.00 0.00 92 1016.9
20210803134046 63 163 0.0 8.0 0.00 0.00 0.00 92 1016.8
20210803133540 63 112 1.0 6.0 0.00 0.00 0.00 92 1016.8
20210803133045 63 94 0.0 0.0 0.00 0.00 0.00 92 1016.9
20210803132554 63 86 0.0 7.0 0.00 0.00 0.00 92 1016.8
20210803132033 63 103 0.0 7.0 0.00 0.00 0.00 92 1016.8
20210803131614 63 112 1.0 7.0 0.00 0.00 0.00 92 1016.8
20210803131033 63 115 3.0 6.0 0.00 0.00 0.00 91 1016.7
20210803130546 63 131 0.0 7.0 0.00 0.00 0.00 91 1016.7
20210803130140 63 128 2.0 9.0 0.00 0.00 0.00 91 1016.7
20210803125541 63 129 1.0 6.0 0.00 0.00 0.00 92 1016.5
20210803125055 63 124 0.0 9.0 0.00 0.00 0.00 92 1016.5
20210803124606 62 142 5.0 9.0 0.00 0.00 0.00 92 1016.5
20210803124040 62 94 0.0 9.0 0.00 0.00 0.00 92 1016.5
20210803123602 62 108 0.0 9.0 0.00 0.00 0.00 92 1016.5
20210803123122 62 146 0.0 7.0 0.00 0.00 0.00 92 1016.6
20210803122529 62 109 3.0 7.0 0.00 0.00 0.00 92 1016.5
20210803122032 62 137 1.0 6.0 0.00 0.00 0.00 92 1016.5
20210803121631 62 95 0.0 6.0 0.00 0.00 0.00 92 1016.6
20210803121039 62 107 0.0 6.0 0.00 0.00 0.00 92 1016.6
20210803120048 62 119 0.0 2.0 0.00 0.00 0.00 93 1016.7
20210803115529 62 136 0.0 3.0 0.00 0.00 0.00 93 1016.7
20210803115031 62 129 0.0 3.0 0.00 0.00 0.00 93 1016.7
20210803114656 61 97 0.0 1.0 0.00 0.00 0.00 93 1016.7
20210803114033 61 132 0.0 2.0 0.00 0.00 0.00 93 1016.6
20210803113527 61 114 0.0 2.0 0.00 0.00 0.00 93 1016.5
20210803113143 61 96 0.0 5.0 0.00 0.00 0.00 93 1016.5
20210803112526 61 72 0.0 3.0 0.00 0.00 0.00 93 1016.4
20210803112111 61 103 0.0 2.0 0.00 0.00 0.00 92 1016.4
20210803111559 61 79 0.0 2.0 0.00 0.00 0.00 92 1016.3
20210803111024 61 101 0.0 0.0 0.00 0.00 0.00 92 1016.4
20210803110525 61 94 0.0 1.0 0.00 0.00 0.00 92 1016.4
20210803110118 61 91 0.0 1.0 0.00 0.00 0.00 92 1016.5
20210803105536 61 37 0.0 1.0 0.00 0.00 0.00 92 1016.5
20210803105028 61 70 0.0 1.0 0.00 0.00 0.00 92 1016.5
20210803104024 61 108 0.0 1.0 0.00 0.00 0.00 92 1016.6
20210803103524 61 108 0.0 2.0 0.00 0.00 0.00 92 1016.6
20210803103053 61 117 0.0 2.0 0.00 0.00 0.00 92 1016.5
20210803102524 61 114 0.0 1.0 0.00 0.00 0.00 92 1016.5
20210803102022 61 127 0.0 0.0 0.00 0.00 0.00 91 1016.4
20210803101550 61 108 0.0 3.0 0.00 0.00 0.00 91 1016.4
20210803101022 61 120 0.0 3.0 0.00 0.00 0.00 91 1016.6
20210803100540 61 91 0.0 3.0 0.00 0.00 0.00 91 1016.5
20210803100145 61 118 0.0 4.0 0.00 0.00 0.00 91 1016.3
20210803095522 61 107 1.0 4.0 0.00 0.00 0.00 91 1016.3
20210803095022 61 115 0.0 2.0 0.00 0.00 0.00 91 1016.4
20210803094539 61 121 0.0 2.0 0.00 0.00 0.00 91 1016.1
20210803094028 61 135 0.0 1.0 0.00 0.00 0.00 91 1016.1
20210803093521 61 118 0.0 2.0 0.00 0.00 0.00 91 1016.2
20210803093026 61 110 0.0 2.0 0.00 0.00 0.00 91 1016.2
20210803092521 61 117 0.0 2.0 0.00 0.00 0.00 91 1016.1
20210803092021 61 136 0.0 1.0 0.00 0.00 0.00 91 1016.2
20210803091527 61 136 0.0 2.0 0.00 0.00 0.00 91 1016.2
20210803091023 61 136 0.0 5.0 0.00 0.00 0.00 91 1016.2
20210803090519 61 137 0.0 5.0 0.00 0.00 0.00 91 1016.1
20210803090034 61 124 1.0 5.0 0.00 0.00 0.00 92 1016.0
20210803085522 61 94 0.0 1.0 0.00 0.00 0.00 92 1016.1
20210803085027 61 117 0.0 0.0 0.00 0.00 0.00 92 1016.1
20210803084526 61 117 0.0 0.0 0.00 0.00 0.00 92 1016.2
20210803084019 61 117 0.0 0.0 0.00 0.00 0.00 91 1016.3
20210803083528 61 117 0.0 0.0 0.00 0.00 0.00 91 1016.1
20210803083039 61 117 0.0 2.0 0.00 0.00 0.00 91 1016.1
20210803082522 62 117 0.0 2.0 0.00 0.00 0.00 91 1016.1
20210803082051 62 114 0.0 7.0 0.00 0.00 0.00 90 1016.1
20210803081532 62 200 2.0 7.0 0.00 0.00 0.00 90 1015.8
20210803081025 62 117 1.0 4.0 0.00 0.00 0.00 90 1015.9
20210803080517 62 117 0.0 0.0 0.00 0.00 0.00 90 1016.0
20210803080021 62 113 0.0 4.0 0.00 0.00 0.00 90 1015.9
20210803075517 62 149 1.0 4.0 0.00 0.00 0.00 90 1016.0
20210803075040 62 136 0.0 4.0 0.00 0.00 0.00 90 1016.0
20210803074545 62 135 1.0 4.0 0.00 0.00 0.00 89 1016.0
20210803074027 62 139 0.0 2.0 0.00 0.00 0.00 89 1016.1
20210803073535 62 113 0.0 4.0 0.00 0.00 0.00 88 1016.1
20210803073047 62 111 0.0 5.0 0.00 0.00 0.00 88 1016.1
20210803072516 62 120 0.0 6.0 0.00 0.00 0.00 88 1016.1
20210803072014 62 158 2.0 6.0 0.00 0.00 0.00 88 1016.2
20210803071610 62 144 1.0 5.0 0.00 0.00 0.00 87 1016.0
20210803071014 63 137 1.0 7.0 0.00 0.00 0.00 87 1016.0
20210803070514 63 109 3.0 10.0 0.00 0.00 0.00 87 1016.0
20210803070045 63 134 4.0 10.0 0.00 0.00 0.00 86 1015.8
20210803065513 63 148 1.0 11.0 0.00 0.00 0.00 86 1016.0
20210803065012 63 168 4.0 11.0 0.00 0.00 0.00 86 1016.1
20210803064543 63 130 3.0 8.0 0.00 0.00 0.00 85 1016.2
20210803064012 63 123 0.0 11.0 0.00 0.00 0.00 85 1016.2
20210803063510 62 126 4.0 11.0 0.00 0.00 0.00 86 1016.3
20210803063040 62 100 2.0 6.0 0.00 0.00 0.00 86 1016.3
20210803062513 61 114 1.0 6.0 0.00 0.00 0.00 88 1016.5
20210803062007 60 125 2.0 6.0 0.00 0.00 0.00 90 1016.4
20210803061506 59 125 0.0 2.0 0.00 0.00 0.00 92 1016.6
20210803061009 59 114 0.0 2.0 0.00 0.00 0.00 92 1016.5
20210803060506 59 114 0.0 0.0 0.00 0.00 0.00 92 1016.5
20210803060005 59 114 0.0 0.0 0.00 0.00 0.00 92 1016.5
20210803055504 59 114 0.0 0.0 0.00 0.00 0.00 91 1016.6
20210803055009 60 114 0.0 0.0 0.00 0.00 0.00 91 1016.7
20210803054510 60 114 0.0 0.0 0.00 0.00 0.00 91 1016.7
20210803054003 60 114 0.0 1.0 0.00 0.00 0.00 91 1016.5
20210803053503 60 119 0.0 1.0 0.00 0.00 0.00 91 1016.7
20210803053005 60 119 0.0 1.0 0.00 0.00 0.00 91 1016.7
20210803052503 60 111 0.0 2.0 0.00 0.00 0.00 91 1016.8
20210803052002 60 108 0.0 0.0 0.00 0.00 0.00 91 1016.7
20210803051501 60 114 0.0 0.0 0.00 0.00 0.00 92 1016.8
20210803051006 60 114 0.0 0.0 0.00 0.00 0.00 92 1016.8
20210803050503 60 114 0.0 0.0 0.00 0.00 0.00 92 1016.8
20210803050139 60 114 0.0 0.0 0.00 0.00 0.00 91 1016.8
20210803045607 60 114 0.0 0.0 0.00 0.00 0.00 91 1016.7
20210803045108 60 113 0.0 0.0 0.00 0.00 0.00 91 1016.7
20210803044814 60 114 0.0 0.0 0.00 0.00 0.00 91 1016.7
20210803044058 60 114 0.0 1.0 0.00 0.00 0.00 91 1016.8
20210803043607 60 114 0.0 1.0 0.00 0.00 0.00 92 1016.9
20210803043258 60 114 0.0 1.0 0.00 0.00 0.00 92 1016.9
20210803042603 60 119 0.0 1.0 0.00 0.00 0.00 92 1016.9
20210803042057 60 124 0.0 0.0 0.00 0.00 0.00 92 1016.9
20210803041654 60 124 0.0 0.0 0.00 0.00 0.00 92 1017.0
20210803041056 61 124 0.0 0.0 0.00 0.00 0.00 91 1017.0
20210803040555 61 124 0.0 0.0 0.00 0.00 0.00 91 1017.0
20210803040132 61 124 0.0 0.0 0.00 0.00 0.00 91 1017.0
20210803035554 61 124 0.0 1.0 0.00 0.00 0.00 90 1016.9
20210803035105 61 124 0.0 1.0 0.00 0.00 0.00 90 1016.8
20210803034705 62 124 0.0 1.0 0.00 0.00 0.00 90 1017.0
20210803034058 62 124 0.0 1.0 0.00 0.00 0.00 90 1016.9
20210803033601 62 124 0.0 1.0 0.00 0.00 0.00 89 1016.9
20210803033111 62 124 0.0 0.0 0.00 0.00 0.00 88 1017.0
20210803032552 62 124 0.0 0.0 0.00 0.00 0.00 87 1017.2
20210803032052 62 124 0.0 0.0 0.00 0.00 0.00 87 1017.0
20210803031722 63 124 0.0 0.0 0.00 0.00 0.00 87 1017.1
20210803031101 63 124 0.0 0.0 0.00 0.00 0.00 87 1017.1
20210803030559 63 124 0.0 0.0 0.00 0.00 0.00 86 1017.3
20210803030151 63 124 0.0 0.0 0.00 0.00 0.00 86 1017.2
20210803025551 63 124 0.0 0.0 0.00 0.00 0.00 85 1017.2
20210803025051 64 124 0.0 0.0 0.00 0.00 0.00 85 1017.4
20210803024647 64 124 0.0 0.0 0.00 0.00 0.00 84 1017.5
20210803024051 64 124 0.0 0.0 0.00 0.00 0.00 84 1017.5
20210803023552 64 124 0.0 0.0 0.00 0.00 0.00 84 1017.5
20210803023249 64 124 0.0 0.0 0.00 0.00 0.00 84 1017.6
20210803022550 64 124 0.0 0.0 0.00 0.00 0.00 83 1017.6
20210803022050 64 124 0.0 0.0 0.00 0.00 0.00 83 1017.5
20210803021709 64 124 0.0 0.0 0.00 0.00 0.00 83 1017.5
20210803021048 64 124 0.0 0.0 0.00 0.00 0.00 82 1017.4
20210803020632 65 124 0.0 1.0 0.00 0.00 0.00 82 1017.4
20210803020156 65 124 0.0 1.0 0.00 0.00 0.00 80 1017.3
20210803015552 65 129 0.0 2.0 0.00 0.00 0.00 80 1017.2
20210803015110 65 146 0.0 4.0 0.00 0.00 0.00 78 1017.3
20210803014559 66 147 0.0 4.0 0.00 0.00 0.00 78 1017.2
20210803014046 66 141 0.0 4.0 0.00 0.00 0.00 77 1017.1
20210803013545 66 155 0.0 4.0 0.00 0.00 0.00 78 1017.0
20210803013122 66 191 0.0 2.0 0.00 0.00 0.00 78 1016.9
20210803012545 66 129 0.0 5.0 0.00 0.00 0.00 78 1016.9
20210803012057 66 150 1.0 5.0 0.00 0.00 0.00 78 1016.8
20210803011639 66 106 1.0 5.0 0.00 0.00 0.00 79 1016.7
20210803011043 66 139 0.0 4.0 0.00 0.00 0.00 80 1016.7
20210803010554 66 134 1.0 4.0 0.00 0.00 0.00 80 1016.7
20210803010158 66 186 0.0 3.0 0.00 0.00 0.00 81 1016.4
20210803005558 66 161 0.0 5.0 0.00 0.00 0.00 80 1016.3
20210803005044 66 128 0.0 5.0 0.00 0.00 0.00 80 1016.4